User: anonymous   Login
Location: Luz Observatory
(34.5000°N, 117.2833°W)
Time: 00:22:17
(UTC-07:00)
Language:

Okean 3 Rocket - Orbit

View from above orbital plane
View from above orbital plane
View from above satellite
View from above satellite

Ground track
Ground track

The orbit data is extracted from the following two-line orbital elements,

1 21398U 91039B   16183.50858822  .00000090  00000-0  89920-5 0  9994
2 21398  82.5216 192.6098 0019978 250.7689 221.4637 14.79612034352052
Epoch (UTC): 01 July 2016 12:12:22
Eccentricity: 0.0019978
inclination: 82.5216°
perigee height: 616 km
apogee height: 644 km
right ascension of ascending node: 192.6098°
argument of perigee: 250.7689°
revolutions per day: 14.79612034
mean anomaly at epoch: 221.4637°
orbit number at epoch: 35205

The dashed part of the orbit path shows where the satellite is in the earth's shadow,  

DLR